Location: Castelbiague
(43.0361°N, 0.9246°E)
Time: 11:11:42
(UTC+00:00)

Cosmos 1867 - Pass Details

Date: 17 June 2021
Orbit: 773 x 802 km, 65.0° (Epoch: 27 July)

Event Time Altitude Azimuth Distance (km) Brightness Sun altitude
Rises 22:52:26 0° 326° (NW) 3,320 8.1 -21.9°
Reaches altitude 10° 22:54:52 10° 326° (NW) 2,386 7.1 -22.0°
Maximum altitude 23:00:23 88° 240° (WSW) 807 3.5 -22.3°
Enters shadow 23:01:49 51° 150° (SSE) 996 3.6 -22.3°
